{"data":{"norad_id":58440,"epoch":"2026-09-20T11:29:58.836480Z","epoch_age_seconds":148569,"freshness":"FRESH","line1":"1 58440U 23183D   26263.47915320 -.00012069  00000+0 -42905-3 0  9990","line2":"2 58440  42.9978 185.0523 0001033 326.4617  33.6170 15.27633482158827","mean_motion":15.27633482,"eccentricity":0.0001033,"inclination_deg":42.9978,"raan_deg":185.0523,"arg_perigee_deg":326.4617,"mean_anomaly_deg":33.617,"bstar":-0.00042905,"rev_number":15882,"period_min":94.263448462437,"perigee_km":482.1802123825,"apogee_km":483.59770034509,"semimajor_km":6861.0259563638,"source":"CELESTRAK","updated_at":"2026-09-21T09:00:33.875705Z"}}